User: anonymous   Login
Location: Unspecified
(0.0000°N, 0.0000°E)
Time: 07:20:04
(UTC+00:00)
Language:

CBERS-4 - Orbit

View from above orbital plane
View from above orbital plane
View from above satellite
View from above satellite

Ground track
Ground track

The orbit is defined by the following mean orbital elements,

1 40336U          26106.97856435 +.00000000 +00000-0 +30336-4 0 00000
2 40336  98.3412 165.7512 0000936 136.9911 223.1349 14.35542598    00
Epoch (UTC): 16 April 2026 23:29:07
Eccentricity: 0.0000936
inclination: 98.3412°
perigee height: 773 km
apogee height: 774 km
right ascension of ascending node: 165.7512°
argument of perigee: 136.9911°
revolutions per day: 14.35542598
mean anomaly at epoch: 223.1349°

The dashed part of the orbit path shows where the satellite is in the earth's shadow,  

DLR